Glens Falls, NY

11:16 AM EDT on July 25, 2017 (GMT -0400)
Bennett Memorial

Weather History for KGFL - January, 2014

Change the Weather History Date:

Tuesday, January 28, 2014

  Actual Average Record
Temperature  
Mean Temperature 4 °F 18 °F  
Max Temperature 15 °F 29 °F 53 °F (2002)
Min Temperature -8 °F 7 °F -27 °F (2003)
Degree Days  
Heating Degree Days 61 47  
Month to date heating degree days 1352 1319  
Since 1 July heating degree days 4291 4257  
Cooling Degree Days 0 0  
Month to date cooling degree days 0 0  
Year to date cooling degree days 0 0  
Moisture  
Dew Point -7 °F    
Average Humidity 60    
Maximum Humidity 82    
Minimum Humidity 38    
Precipitation  
Precipitation 0.00 in 0.09 in 1.28 in (1994)
Month to date precipitation 1.93 2.60  
Year to date precipitation 1.93 2.60  
Sea Level Pressure  
Sea Level Pressure 30.25 in    
Wind  
Wind Speed 6 mph (SW)    
Max Wind Speed 15 mph    
Max Gust Speed 20 mph    
Visibility 10 miles    
Events      
T = Trace of Precipitation, MM = Missing Value Source: NWS Daily Summary

Daily Weather History Graph

Daily Weather History Graph

Search for Another Location

Airport or City:

Trip Planner

Search our weather history database for the weather conditions in past years. The results will help you decide how hot, cold, wet, or windy it might be!

Date:

Astronomy

Jan. 28, 2014 Rise Set
Actual Time 7:14 AM EST 5:00 PM EST
Civil Twilight 6:43 AM EST 5:31 PM EST
Nautical Twilight 6:09 AM EST 6:06 PM EST
Astronomical Twilight 5:35 AM EST 6:39 PM EST
Moon 4:54 AM EST (1/28) 2:47 PM EST (1/28)
Length of Visible Light 10h 47m
Length of Day
9h 46m
Waning Crescent, 7% of the Moon is Illuminated
Jan 28
Waning Crescent
Jan 30
New
Feb 6
First Quarter
Feb 14
Full
Feb 22
Last Quarter

Hourly Weather History & Observations

Time (EST) Temp. Windchill Dew Point Humidity Pressure Visibility Wind Dir Wind Speed Gust Speed Precip Events Conditions
12:53 AM 5.0 °F -4.1 °F -4.0 °F 66% 30.09 in 10.0 mi WSW 4.6 mph - N/A   Clear
1:53 AM 7.0 °F -4.5 °F -2.0 °F 67% 30.10 in 10.0 mi SW 6.9 mph - N/A   Clear
2:53 AM 7.0 °F -1.7 °F -5.1 °F 58% 30.13 in 10.0 mi WSW 4.6 mph - N/A   Clear
3:53 AM 6.1 °F -4.3 °F -6.0 °F 58% 30.15 in 10.0 mi WSW 5.8 mph - N/A   Clear
4:53 AM 5.0 °F -4.1 °F -5.1 °F 63% 30.18 in 10.0 mi SW 4.6 mph - N/A   Mostly Cloudy
5:53 AM 5.0 °F -8.1 °F -7.1 °F 58% 30.22 in 10.0 mi WSW 8.1 mph - N/A   Clear
6:53 AM 5.0 °F -8.1 °F -9.0 °F 52% 30.26 in 10.0 mi SW 8.1 mph - N/A   Clear
7:53 AM 5.0 °F -10.0 °F -9.0 °F 52% 30.28 in 10.0 mi WSW 10.4 mph - N/A   Clear
8:53 AM 6.1 °F -2.8 °F -8.0 °F 53% 30.31 in 10.0 mi Variable 4.6 mph - N/A   Clear
9:53 AM 8.1 °F -7.0 °F -7.1 °F 50% 30.33 in 10.0 mi SW 11.5 mph - N/A   Clear
10:53 AM 10.0 °F 0.4 °F -6.0 °F 48% 30.32 in 10.0 mi SSW 5.8 mph - N/A   Partly Cloudy
11:53 AM 12.0 °F -0.4 °F -6.0 °F 44% 30.32 in 10.0 mi South 9.2 mph - N/A   Clear
12:53 PM 12.9 °F -0.9 °F -5.1 °F 45% 30.30 in 10.0 mi SSW 11.5 mph - N/A   Scattered Clouds
1:53 PM 14.0 °F 1.2 °F -6.0 °F 41% 30.27 in 10.0 mi SSW 10.4 mph - N/A   Partly Cloudy
2:53 PM 15.1 °F 4.2 °F -6.0 °F 39% 30.27 in 10.0 mi SW 8.1 mph - N/A   Clear
3:53 PM 15.1 °F 6.4 °F -6.0 °F 39% 30.27 in 10.0 mi WSW 5.8 mph - N/A   Clear
4:53 PM 14.0 °F 2.0 °F -8.0 °F 37% 30.30 in 10.0 mi SW 9.2 mph - N/A   Clear
5:53 PM 12.0 °F 1.5 °F -9.0 °F 39% 30.30 in 10.0 mi SW 6.9 mph - N/A   Clear
6:53 PM 6.1 °F -0.9 °F -8.0 °F 53% 30.31 in 10.0 mi South 3.5 mph - N/A   Clear
7:53 PM 1.0 °F - -9.0 °F 63% 30.30 in 10.0 mi Calm Calm - N/A   Clear
8:53 PM -2.0 °F - -9.9 °F 69% 30.30 in 10.0 mi Calm Calm - N/A   Clear
9:53 PM -2.9 °F - -9.9 °F 72% 30.28 in 10.0 mi Calm Calm - N/A   Clear
10:53 PM -6.0 °F - -9.0 °F 87% 30.27 in 10.0 mi Calm Calm - N/A   Clear
11:53 PM -6.0 °F - -11.9 °F 75% 30.26 in 10.0 mi Calm Calm - N/A   Clear